AEA72QU LECO-LEPA

Flight info

Callsign AEA72QU
Flight time N/A
Altitude 37000
Route FORNO DCT DESAT DCT ZMR DCT PDT/N0445F360 M871 LASPO/N0405F260 M871 GODOX
Aircraft B738/M-SDE2E3FGHIRWXY/LB1

Departure

Time 2026-05-08 14:02
Airport A Coruña Airport (LECO)

Arrival

Time N/A
Airport Palma de Mallorca Airport (LEPA)
Time Latitude Longitude Altitude Speed Heading
2026-05-08 13:59 43.30408 -8.37561 272 ft 21 kts 31°
2026-05-08 13:59 43.30537 -8.37454 274 ft 23 kts 31°
2026-05-08 13:59 43.30693 -8.37326 274 ft 29 kts 31°
2026-05-08 14:00 43.30874 -8.37193 274 ft 27 kts
2026-05-08 14:00 43.30968 -8.37113 278 ft 13 kts 143°
2026-05-08 14:00 43.30946 -8.37117 275 ft 0 kts 211°
2026-05-08 14:01 43.30944 -8.37119 275 ft 4 kts 212°
2026-05-08 14:01 43.30843 -8.37205 276 ft 44 kts 211°
2026-05-08 14:01 43.30365 -8.37597 271 ft 114 kts 211°
2026-05-08 14:02 43.29529 -8.38281 371 ft 157 kts 211°
2026-05-08 14:02 43.28582 -8.39058 1025 ft 160 kts 211°
2026-05-08 14:02 43.27555 -8.39623 1707 ft 163 kts 190°
2026-05-08 14:02 43.26373 -8.39609 2158 ft 181 kts 170°
2026-05-08 14:03 43.25127 -8.39002 2658 ft 197 kts 152°
2026-05-08 14:03 43.24047 -8.37784 3199 ft 209 kts 133°
2026-05-08 14:03 43.23360 -8.35976 3732 ft 221 kts 105°
2026-05-08 14:03 43.23313 -8.33868 4466 ft 224 kts 82°
2026-05-08 14:04 43.23623 -8.31770 5187 ft 225 kts 82°
2026-05-08 14:04 43.23908 -8.29655 5842 ft 227 kts 83°
2026-05-08 14:04 43.24162 -8.27522 6606 ft 226 kts 84°
2026-05-08 14:04 43.24399 -8.25389 7371 ft 227 kts 85°
2026-05-08 14:05 43.24629 -8.23229 8080 ft 229 kts 85°
2026-05-08 14:05 43.24856 -8.21053 8794 ft 231 kts 88°
2026-05-08 14:05 43.24691 -8.18904 9487 ft 226 kts 114°
2026-05-08 14:05 43.24271 -8.17600 9953 ft 228 kts 117°
2026-05-08 14:06 43.23380 -8.15714 10243 ft 248 kts 142°
2026-05-08 14:06 43.21898 -8.14330 10482 ft 271 kts 149°
2026-05-08 14:06 43.20212 -8.12900 10667 ft 297 kts 149°
2026-05-08 14:06 43.18387 -8.11350 10900 ft 319 kts 149°
2026-05-08 14:07 43.16477 -8.09706 11487 ft 328 kts 149°
2026-05-08 14:07 43.14541 -8.08016 12274 ft 331 kts 148°
2026-05-08 14:07 43.12606 -8.06312 13135 ft 332 kts 148°
2026-05-08 14:07 43.10653 -8.04581 13903 ft 336 kts 148°
2026-05-08 14:08 43.08682 -8.02828 14676 ft 340 kts 148°
2026-05-08 14:08 43.06687 -8.01049 15448 ft 344 kts 148°
2026-05-08 14:08 43.04677 -7.99254 16221 ft 347 kts 148°
2026-05-08 14:08 43.02644 -7.97439 16932 ft 351 kts 148°
2026-05-08 14:09 43.00583 -7.95599 17594 ft 356 kts 148°
2026-05-08 14:09 42.98503 -7.93744 18327 ft 358 kts 148°
2026-05-08 14:09 42.96409 -7.91878 18992 ft 362 kts 148°
2026-05-08 14:09 42.94288 -7.89990 19620 ft 366 kts 148°
2026-05-08 14:10 42.92147 -7.88084 20270 ft 369 kts 148°
2026-05-08 14:10 42.89984 -7.86162 20879 ft 373 kts 148°
2026-05-08 14:10 42.87801 -7.84223 21449 ft 377 kts 148°
2026-05-08 14:10 42.85597 -7.82266 22047 ft 380 kts 148°
2026-05-08 14:11 42.83374 -7.80296 22607 ft 383 kts 148°
2026-05-08 14:11 42.81129 -7.78306 23130 ft 387 kts 148°
2026-05-08 14:11 42.78861 -7.76299 23661 ft 390 kts 148°
2026-05-08 14:11 42.76581 -7.74283 24182 ft 393 kts 148°
2026-05-08 14:12 42.74285 -7.72254 24661 ft 396 kts 148°
2026-05-08 14:12 42.71956 -7.70198 25149 ft 399 kts 148°
2026-05-08 14:12 42.69626 -7.68142 25646 ft 401 kts 148°
2026-05-08 14:12 42.67277 -7.66071 26100 ft 403 kts 148°
2026-05-08 14:13 42.64916 -7.63993 26562 ft 405 kts 148°
2026-05-08 14:13 42.62546 -7.61907 27006 ft 407 kts 148°
2026-05-08 14:13 42.60159 -7.59809 27409 ft 410 kts 148°
2026-05-08 14:13 42.57754 -7.57698 27807 ft 413 kts 148°
2026-05-08 14:14 42.55338 -7.55577 28212 ft 414 kts 148°
2026-05-08 14:14 42.52908 -7.53446 28603 ft 416 kts 148°
2026-05-08 14:14 42.50469 -7.51310 28956 ft 419 kts 148°
2026-05-08 14:14 42.48023 -7.49146 29290 ft 421 kts 145°
2026-05-08 14:15 42.45880 -7.46434 29604 ft 427 kts 130°
2026-05-08 14:15 42.44660 -7.44094 29816 ft 430 kts 126°
2026-05-08 14:15 42.43625 -7.41994 29777 ft 434 kts 126°
2026-05-08 14:16 42.40331 -7.35196 29794 ft 428 kts 126°
2026-05-08 14:16 42.37069 -7.28522 29899 ft 424 kts 126°
2026-05-08 14:17 42.33779 -7.21883 29899 ft 426 kts 126°
2026-05-08 14:17 42.30467 -7.15247 29973 ft 430 kts 126°
2026-05-08 14:17 42.28785 -7.11883 30274 ft 431 kts 126°
2026-05-08 14:18 42.27105 -7.08529 30639 ft 431 kts 126°
2026-05-08 14:18 42.25424 -7.05172 31014 ft 431 kts 126°
2026-05-08 14:18 42.23744 -7.01824 31381 ft 431 kts 127°
2026-05-08 14:18 42.22062 -6.98475 31712 ft 432 kts 127°
2026-05-08 14:19 42.20378 -6.95126 32054 ft 431 kts 127°
2026-05-08 14:19 42.18692 -6.91775 32376 ft 432 kts 127°
2026-05-08 14:19 42.17003 -6.88421 32694 ft 432 kts 127°
2026-05-08 14:19 42.15315 -6.85075 33036 ft 432 kts 127°
2026-05-08 14:20 42.13631 -6.81739 33375 ft 432 kts 128°
2026-05-08 14:20 42.11935 -6.78385 33693 ft 432 kts 128°
2026-05-08 14:20 42.10246 -6.75045 33947 ft 433 kts 128°
2026-05-08 14:20 42.08541 -6.71681 34227 ft 434 kts 128°
2026-05-08 14:21 42.06837 -6.68321 34525 ft 434 kts 128°
2026-05-08 14:21 42.05132 -6.64966 34808 ft 434 kts 128°
2026-05-08 14:21 42.03424 -6.61608 35040 ft 436 kts 128°
2026-05-08 14:21 42.01709 -6.58239 35292 ft 437 kts 128°
2026-05-08 14:22 41.99995 -6.54872 35570 ft 436 kts 128°
2026-05-08 14:22 41.98277 -6.51501 35813 ft 437 kts 128°
2026-05-08 14:22 41.96546 -6.48112 35918 ft 442 kts 128°
2026-05-08 14:22 41.94803 -6.44702 36100 ft 444 kts 128°
2026-05-08 14:23 41.93055 -6.41285 36371 ft 443 kts 128°
2026-05-08 14:23 41.91310 -6.37878 36641 ft 442 kts 128°
2026-05-08 14:23 41.89564 -6.34473 36840 ft 444 kts 128°
2026-05-08 14:24 41.86046 -6.27621 36916 ft 447 kts 128°
2026-05-08 14:24 41.82555 -6.20834 36901 ft 436 kts 129°
2026-05-08 14:25 41.79127 -6.14193 36914 ft 432 kts 129°
2026-05-08 14:25 41.75715 -6.07598 36927 ft 431 kts 129°
2026-05-08 14:26 41.72298 -6.01005 36914 ft 431 kts 129°
2026-05-08 14:26 41.68880 -5.94419 36916 ft 431 kts 129°
2026-05-08 14:27 41.65460 -5.87843 36927 ft 432 kts 129°
2026-05-08 14:27 41.62014 -5.81233 36905 ft 433 kts 129°
2026-05-08 14:28 41.58560 -5.74619 36906 ft 435 kts 129°
2026-05-08 14:28 41.55082 -5.67973 36917 ft 437 kts 129°
2026-05-08 14:29 41.51584 -5.61330 36912 ft 438 kts 130°
2026-05-08 14:29 41.48027 -5.54720 36909 ft 439 kts 130°
2026-05-08 14:30 41.44451 -5.48112 36912 ft 440 kts 130°
2026-05-08 14:30 41.40871 -5.41498 36911 ft 441 kts 130°
2026-05-08 14:31 41.37282 -5.34869 36916 ft 442 kts 130°
2026-05-08 14:31 41.33684 -5.28238 36917 ft 442 kts 130°
2026-05-08 14:32 41.28279 -5.18298 36920 ft 442 kts 130°
2026-05-08 14:32 41.24666 -5.11672 36925 ft 442 kts 131°
2026-05-08 14:33 41.21051 -5.05055 36917 ft 442 kts 131°
2026-05-08 14:33 41.17432 -4.98449 36923 ft 442 kts 131°
2026-05-08 14:34 41.13818 -4.91863 36916 ft 442 kts 131°
2026-05-08 14:34 41.10193 -4.85274 36916 ft 442 kts 131°
2026-05-08 14:35 41.06567 -4.78693 36911 ft 442 kts 131°
2026-05-08 14:35 41.02932 -4.72112 36914 ft 443 kts 131°
2026-05-08 14:36 40.99906 -4.66645 36919 ft 443 kts 131°
2026-05-08 14:37 40.91979 -4.52371 36918 ft 444 kts 131°